Location: Banios
(43.0451°N, 0.2335°E)
Time: 05:40:10
(UTC+00:00)

A-11 Canister half - Pass Details

Date: 09 December 2021
Orbit: 1516 x 1684 km, 47.2° (Epoch: 22 January)

Event Time Altitude Azimuth Distance (km) Brightness Sun altitude
Exits shadow 05:17:37 - 226° (SW) 4,464 11.1 -21.3°
Reaches altitude 10° 05:19:55 10° 224° (SW) 3,740 10.7 -20.9°
Maximum altitude 05:29:15 64° 145° (SE) 1,738 9.4 -19.3°
Drops below altitude 10° 05:38:59 10° 67° (ENE) 3,884 11.9 -17.5°
Sets 05:42:11 0° 65° (ENE) 4,892 12.4 -17.0°
